Miscellaneous Local Product
Issued by NWS Hastings, NE

Home | Current Version | Previous Version | Text Only | Print | Product List | Glossary Off
Versions: 1 2 3 4 5 6 7 8 9 10 11 12 13 14 15 16 17 18 19 20 21 22 23 24 25 26 27 28 29 30 31 32 33 34 35 36 37 38 39 40 41 42 43 44 45 46 47 48 49 50

000
AXUS43 KGID 251002
MISGRI

GID CWA HOURLY WEATHER ROUNDUP
NATIONAL WEATHER SERVICE HASTINGS NE
400 AM CST THU DEC 25 2014

NOTE: "FAIR" INDICATES FEW OR NO CLOUDS BELOW 12,000 FEET WITH NO
SIGNIFICANT WEATHER AND/OR OBSTRUCTIONS TO VISIBILITY.

...SOUTH CENTRAL NEBRASKA...

CITY           SKY/WX    TMP DP  RH WIND       PRES   REMARKS
GRAND ISLAND   CLOUDY    32  21  64 S13       29.56F WCI  22
HASTINGS       MOCLDY    31  21  66 S7        29.55S WCI  24
KEARNEY        MOCLDY    28  19  69 S7        29.53F WCI  21
ORD            CLOUDY    27  24  89 SE3       29.51F
YORK           CLOUDY    32  27  80 S13       29.58F WCI  22
AURORA         CLOUDY    32  24  70 S8        29.57F WCI  25
LEXINGTON      CLOUDY    29  25  84 SE7       29.51S WCI  22
HOLDREGE       MOCLDY    30  21  68 S7        29.52F WCI  24
HEBRON         CLOUDY    34  24  66 S8        29.63S WCI  27

...NEBRASKA PANHANDLE...

CITY           SKY/WX    TMP DP  RH WIND       PRES   REMARKS
CHADRON        CLOUDY    31  25  78 N8        29.46R WCI  23
ALLIANCE       CLOUDY    31  28  89 CALM      29.43S
SCOTTSBLUFF    CLOUDY    34  29  82 SE3       29.44R
SIDNEY         CLOUDY    33  23  66 NW12      29.42F WCI  24

...WESTERN AND NORTH CENTRAL NEBRASKA...

CITY           SKY/WX    TMP DP  RH WIND       PRES   REMARKS
VALENTINE      CLOUDY    28  25  88 NW5       29.45S WCI  23
AINSWORTH      CLOUDY    33  27  79 W3        29.44F
ONEILL         CLOUDY    29  26  87 S8        29.49S WCI  21
BROKEN BOW     CLOUDY    29  25  85 CALM      29.48F
IMPERIAL       CLOUDY    25  19  78 E3        29.44F
NORTH PLATTE   MOCLDY    23  20  88 E6        29.46F WCI  16
MCCOOK         CLOUDY    29  23  78 E8        29.46S WCI  21

...EASTERN NEBRASKA...

CITY           SKY/WX    TMP DP  RH WIND       PRES   REMARKS
NORFOLK        MOCLDY    31  24  75 SW5       29.55R WCI  26
SO SIOUX CITY  PTCLDY    30  26  85 SE12      29.59F WCI  20
TEKAMAH        PTCLDY    30  27  88 SE10      29.62F WCI  21
COLUMBUS       CLOUDY    34  21  60 SW6       29.59F WCI  29
ALBION         CLOUDY    31  23  71 SE5       29.55S WCI  27
OMAHA EPPLEY   MOCLDY    30  27  88 S12       29.66F WCI  20
OFFUTT AFB     PTCLDY    29  26  90 SE2       29.65F
MILLARD        MOCLDY    29  26  86 SE5       29.66S WCI  24
LINCOLN        CLOUDY    33  26  75 S9        29.64F WCI  25
NEBRASKA CITY  MOCLDY    32  26  80 S14       29.68S WCI  22
BEATRICE       CLOUDY    33  26  73 S10       29.65F WCI  25
FALLS CITY     MOCLDY    32  26  78 S14       29.72S WCI  22

...NORTHERN KANSAS...

CITY           SKY/WX    TMP DP  RH WIND       PRES   REMARKS
GOODLAND       CLOUDY    32  21  64 SW9       29.43F WCI  24
HILL CITY      CLOUDY    33  19  56 S8        29.52F WCI  26
NORTON         SUNNY     34  18  51 SE8       29.49F WCI  27
PHILLIPSBURG   CLEAR     34  23  64 E5        29.53F WCI  30
SMITH CENTER   CLEAR     28  21  74 SE10      29.57F WCI  19
BELOIT         CLEAR     34  23  64 SE9       29.61F WCI  26
HAYS           CLOUDY    30  16  55 SE13      29.55F WCI  20
RUSSELL        MOCLDY    34  21  59 S17       29.56F WCI  23
CONCORDIA      MOCLDY    35  24  64 S16       29.62F WCI  25
SALINA         PTCLDY    35  24  64 S12       29.66F WCI  27
TOPEKA         CLEAR     34  27  75 S8        29.77F WCI  27



USA.gov is the U.S. government's official web portal to all federal, state and local government web resources and services.